SCP
4 4 4 4 4 3 3 3 3 3 3 2 2 2 2 2 1 1 2 2 3 4 3 3 2 2 2 2 2 2 2 2 2 2 2 2 2 2 2 2 2 2 2
5 5 5 4 4 3 3 3 3 3 3 2 2 2 2 2 2 2 2 2 3 4 4 3 2 2 2 2 2 2 2 2 2 2 2 2 2 2 2 2 2 2 2
6 6 5 5 4 3 3 4 4 4 3 3 2 2 2 2 2 2 2 2 3 3 4 4 3 2 2 2 2 2 2 2 2 2 2 2 2 2 2 2 2 2 2
6 6 6 5 4 4 4 4 4 4 4 3 3 2 2 2 2 2 2 2 2 3 3 3 3 3 3 3 2 2 3 3 2 2 2 2 2 2 2 2 2 2 2
6 6 5 5 5 5 5 5 4 4 3 3 2 2 2 2 2 2 2 2 2 3 3 3 3 4 3 3 3 3 2 2 2 2 2 2 2 2 1 1 1 1 1
7 6 5 5 6 6 6 6 6 4 3 2 2 2 2 2 2 2 2 2 2 3 3 3 3 3 3 3 3 2 2 2 2 1 2 2 1 1 1 1 1 1 1
10 8 6 5 6 7 8 8 7 5 3 2 2 2 2 2 2 2 2 2 2 2 2 3 3 2 2 2 2 2 2 2 2 2 2 2 1 1 1 1 1 1 1
13 11 7 5 5 7 8 10 8 5 3 2 2 2 2 2 2 2 2 2 2 2 2 2 2 2 1 1 1 2 2 2 2 2 2 1 1 1 1 1 1 1 1
14 13 10 7 6 6 7 9 8 5 3 3 2 2 2 2 2 2 2 2 2 2 2 2 2 2 1 1 1 2 2 2 3 3 2 2 1 1 1 1 1 1 1
12 12 11 9 7 6 6 7 7 5 4 3 2 2 2 2 2 2 2 2 2 2 2 2 2 2 2 1 1 1 2 2 3 3 3 2 2 1 1 1 1 1 1
9 10 10 10 8 6 6 6 6 5 4 4 3 2 2 2 1 1 1 1 1 1 2 2 2 2 2 2 1 1 1 1 2 3 3 3 2 2 2 1 1 1 1
9 9 9 9 8 7 6 6 5 5 4 4 3 2 2 1 1 1 1 1 1 1 2 2 2 2 2 1 1 1 1 1 1 2 2 2 2 2 2 2 1 1 1
12 12 11 10 9 8 7 6 5 4 4 4 3 2 1 1 1 1 1 1 1 2 2 2 2 2 2 1 1 1 1 0 0 1 1 2 2 2 2 1 1 1 1
17 17 15 12 10 7 6 5 5 5 5 4 3 2 2 2 2 1 1 1 1 1 2 2 2 2 2 1 1 1 1 0 0 0 0 1 1 1 1 1 1 1 1
19 18 16 12 9 7 6 5 5 5 5 4 3 2 2 2 2 1 1 1 1 1 1 1 2 2 2 2 1 1 1 1 0 0 0 0 1 1 1 1 1 1 1
18 17 15 11 8 7 6 6 5 5 5 4 3 2 2 1 1 1 1 1 1 1 1 1 1 2 2 2 1 1 1 1 0 0 0 0 0 0 0 0 0 0 0
16 16 14 11 8 7 7 6 5 4 4 4 3 2 1 1 1 1 1 1 1 1 1 1 1 2 2 2 1 1 1 1 0 0 0 0 0 0 0 0 0 0 0
13 12 11 9 7 6 7 5 4 3 3 3 3 2 2 2 2 1 1 1 1 1 1 1 1 2 2 2 2 2 1 1 1 0 0 0 0 0 0 0 0 0 0
8 7 6 5 4 4 5 4 3 3 3 3 3 3 3 2 2 2 1 1 1 1 1 1 1 1 1 2 2 2 1 1 1 0 0 0 0 0 0 0 0 0 0
4 3 3 2 2 2 3 3 3 3 3 3 3 3 3 3 2 2 2 1 1 1 2 2 1 1 1 1 1 1 1 1 1 0 0 0 0 0 0 0 0 0 0
2 2 2 2 2 2 2 3 3 4 4 4 4 4 3 3 2 2 2 1 1 1 1 1 1 1 1 1 1 1 1 1 1 0 0 0 0 0 0 0 0 0 0
2 2 2 2 3 3 2 2 2 3 4 4 4 4 3 3 2 2 1 1 1 1 1 1 1 1 1 1 1 1 1 1 1 1 1 1 0 0 0 0 0 0 0
1 2 2 2 2 2 2 1 1 2 3 4 4 4 3 2 2 2 1 1 1 1 1 1 1 1 2 2 2 1 1 1 1 1 1 1 1 1 1 0 0 0 0
1 1 1 1 1 1 1 0 0 1 2 3 3 3 3 2 2 2 1 1 1 1 1 1 1 1 2 2 2 1 1 1 1 1 1 1 1 1 1 0 0 0 0
1 1 1 1 1 1 1 0 0 1 1 2 2 2 2 2 2 1 1 1 2 2 1 1 1 1 1 1 1 1 1 1 1 1 1 1 1 1 1 1 0 0 0
1 1 1 2 2 1 1 0 0 1 1 1 2 2 2 1 1 1 1 1 2 2 2 1 1 0 0 1 1 1 1 1 1 1 1 1 1 1 1 1 0 0 0
Wind_Speed
1 1 1 2 3 2 3 3 3 4 4 4 4 5 4 4 3 2 4 9 10 10 11 11 10 10 9 8 8 8 8 8 8 8 7 7 7 8 8 8 8 8 9
0 1 2 2 2 2 2 3 3 3 3 3 4 4 3 4 2 2 3 6 10 11 11 11 11 10 10 10 9 9 8 8 7 7 7 7 8 7 7 7 8 8 8
1 2 2 2 2 2 3 3 3 2 3 3 3 4 3 3 3 3 3 3 5 9 11 11 11 11 10 10 10 9 8 8 7 7 7 7 7 8 8 8 8 8 7
2 2 2 2 2 2 2 2 2 2 3 3 2 3 3 3 4 4 4 4 4 5 9 12 11 11 11 11 10 10 9 8 8 8 7 7 7 7 8 8 8 8 7
2 2 2 2 3 2 2 3 2 2 2 3 3 3 3 3 3 4 4 4 4 4 5 9 13 12 12 11 11 10 10 9 9 8 8 7 7 6 6 7 7 7 7
2 2 2 3 3 2 2 2 2 2 2 2 4 3 3 3 3 4 5 4 4 5 5 6 7 8 12 12 11 10 10 10 9 8 8 8 7 6 6 6 6 6 6
2 2 3 3 3 3 3 3 3 3 3 2 2 3 3 4 3 3 3 3 3 4 4 4 4 4 5 10 10 10 10 10 9 9 8 7 7 6 6 6 6 7 7
2 3 2 3 3 3 3 3 3 3 3 3 2 2 2 3 3 5 4 4 4 3 4 5 4 5 4 4 7 10 9 9 9 8 8 7 6 6 6 6 6 6 7
3 3 3 3 3 3 3 3 4 4 3 3 3 2 2 2 2 2 4 3 4 3 3 4 5 5 5 5 6 9 10 9 9 9 7 6 6 6 7 7 7 7 6
3 3 3 4 3 3 3 4 4 3 4 4 3 3 3 2 2 1 2 3 4 4 4 4 5 4 4 3 5 9 11 11 9 9 8 7 6 6 6 7 7 7 7
3 4 3 3 3 3 3 4 3 4 3 4 3 3 3 3 3 2 3 3 3 3 3 3 3 3 4 4 4 7 12 12 11 9 8 8 7 7 7 8 8 8 8
3 3 3 3 3 3 4 4 4 5 4 4 4 3 2 2 3 2 3 3 3 3 3 2 3 3 3 4 5 9 11 12 12 10 9 8 8 8 9 9 9 9 9
3 2 3 3 3 3 4 4 4 5 5 5 4 3 3 3 2 2 2 3 3 2 2 3 3 3 3 3 4 8 10 12 12 11 10 9 9 9 9 9 9 8 8
3 3 3 4 4 4 4 3 4 5 4 5 6 4 3 3 3 3 2 2 2 3 3 3 2 3 2 3 5 8 6 11 12 12 11 10 10 9 9 9 8 8 8
4 3 3 3 3 4 4 3 3 4 4 4 4 4 3 3 3 3 3 3 3 4 4 3 2 3 3 2 6 5 5 9 11 12 11 11 11 10 10 9 9 8 8
3 3 3 3 3 4 4 3 3 3 3 3 3 3 3 4 3 2 3 3 4 4 4 3 3 3 3 4 5 4 4 9 11 12 12 12 12 11 11 10 10 9 8
3 4 3 3 3 3 2 2 3 3 4 3 4 4 5 4 3 3 3 3 3 3 4 4 3 3 4 3 3 3 4 5 6 11 12 13 12 12 12 11 11 10 9
3 3 3 3 4 3 2 2 3 3 4 4 5 4 5 4 4 3 3 3 3 4 4 5 3 3 3 4 4 4 4 4 4 8 11 13 13 13 12 12 11 10 10
3 3 3 3 4 3 2 2 3 3 4 5 4 5 5 5 5 4 4 4 4 4 3 3 4 3 3 3 3 4 4 3 4 5 8 11 12 12 12 12 12 11 11
3 3 3 3 3 3 3 3 3 3 4 4 4 4 5 5 6 5 4 4 4 4 3 3 4 4 3 3 3 3 2 2 3 4 5 6 8 10 11 12 12 12 11
4 3 3 3 3 3 4 3 2 4 4 4 4 4 4 5 6 5 5 4 4 3 3 3 4 3 3 3 3 3 3 3 3 3 2 3 4 5 6 8 10 11 11
4 3 4 4 4 4 2 3 3 3 4 4 3 3 4 4 5 6 7 7 6 5 5 4 4 4 5 4 3 3 3 3 3 3 3 3 3 4 4 5 9 11 12
4 4 4 4 3 2 3 4 5 4 4 4 4 4 5 4 4 3 5 6 7 9 9 6 6 5 5 4 4 4 4 4 4 3 3 3 3 4 3 4 9 10 11
4 4 4 4 3 4 4 5 6 5 5 4 5 5 4 4 5 4 4 4 5 5 7 7 6 6 6 4 5 5 5 4 3 3 3 3 3 2 3 3 8 11 11
4 4 4 4 4 4 4 5 4 3 4 4 5 5 4 4 4 4 3 4 4 4 4 6 7 7 6 6 4 3 3 3 3 3 2 2 2 1 2 2 5 9 10
4 5 5 4 4 3 3 3 4 3 3 3 3 3 4 3 2 3 3 3 4 3 3 2 2 4 4 5 7 6 5 4 3 2 2 2 2 1 1 2 2 3 5
Wind_Direction
220 204 224 222 230 220 218 238 237 237 240 238 245 241 238 242 239 200 171 176 178 184 192 202 206 209 213 215 219 220 217 218 219 216 218 219 221 225 227 226 225 227 226
252 253 239 244 243 231 227 234 247 238 238 246 244 245 250 254 243 224 186 181 186 189 195 202 206 208 213 218 221 222 219 219 219 216 216 218 221 224 230 229 228 229 230
265 266 250 247 254 244 230 230 244 249 240 242 243 245 244 249 236 229 218 195 192 199 201 204 204 207 213 218 221 223 221 220 220 218 215 217 224 227 230 230 231 231 231
265 269 263 266 268 256 236 228 235 243 247 248 244 240 231 222 230 221 225 215 200 200 203 202 202 205 211 215 218 221 222 221 219 219 218 217 222 229 230 232 233 232 232
272 271 269 270 269 268 259 251 229 242 255 255 255 240 232 223 222 227 225 224 210 198 190 194 201 205 208 211 216 220 223 222 219 218 219 220 220 222 224 225 229 230 232
268 276 259 263 267 264 257 257 247 248 248 249 259 255 239 223 219 220 225 224 208 204 199 193 191 206 211 212 214 216 218 221 218 217 221 222 223 222 222 220 223 225 226
269 269 279 273 266 256 249 248 243 239 236 243 254 267 256 227 224 215 216 216 219 214 198 187 187 192 201 209 210 210 214 217 217 219 224 225 224 221 220 219 222 226 226
264 263 256 266 262 257 251 245 235 244 242 220 220 239 246 239 235 226 213 204 215 217 205 202 194 193 194 189 196 201 206 209 211 215 219 220 221 225 224 226 226 225 223
265 275 266 262 263 254 249 250 234 232 243 235 212 210 220 224 240 220 225 213 199 203 216 210 198 195 198 183 181 194 199 199 204 208 212 219 227 233 231 230 229 229 227
266 267 263 256 255 258 248 252 242 240 237 241 232 226 231 231 224 233 235 222 209 203 212 218 210 193 188 181 174 177 187 190 197 203 208 216 224 232 232 231 231 231 231
258 255 251 251 249 251 251 252 249 235 238 243 245 237 239 244 238 231 236 226 227 213 204 213 220 195 187 184 177 182 184 188 191 197 204 211 219 227 233 233 232 232 233
274 275 271 255 249 247 250 248 245 238 238 243 249 249 240 234 236 236 238 230 223 224 205 206 218 209 194 182 198 181 180 188 192 197 203 211 220 226 231 230 230 231 232
280 277 278 265 256 246 249 247 242 237 234 238 241 245 251 244 244 246 241 244 238 234 220 220 216 211 205 170 180 184 181 187 195 198 202 209 216 223 226 228 229 230 232
283 275 266 260 260 260 261 253 245 237 229 233 239 232 245 251 252 254 245 240 254 251 232 230 221 211 210 179 184 187 188 192 195 198 201 205 212 217 221 225 227 228 231
287 285 278 281 275 267 266 261 251 242 231 232 235 229 235 254 250 250 251 228 232 247 247 232 228 214 206 187 181 190 185 193 198 200 201 204 209 213 216 220 222 224 226
307 301 279 281 280 275 271 263 260 238 229 223 221 227 234 247 255 248 252 250 242 241 255 242 228 208 208 220 197 192 189 193 204 205 203 205 208 211 214 218 220 221 223
303 300 291 285 281 275 275 264 267 253 239 231 229 224 226 232 237 245 248 255 254 239 244 252 228 214 207 216 200 196 193 192 200 206 203 204 207 210 213 216 218 217 217
291 286 279 283 282 281 273 257 255 258 247 238 232 227 229 232 226 235 238 249 257 245 230 240 239 228 224 210 199 206 210 209 200 206 203 205 207 209 211 212 213 213 213
289 284 273 276 282 279 266 260 254 255 254 247 236 231 233 232 238 237 238 242 247 250 235 237 240 229 223 223 211 220 217 212 218 213 205 204 206 209 209 210 211 211 210
290 284 266 263 266 266 263 261 255 256 254 254 247 239 238 232 232 235 238 237 243 248 240 242 237 230 221 217 209 210 223 218 228 227 215 199 200 205 208 209 209 208 206
288 286 276 270 266 258 252 254 258 259 256 257 253 245 245 237 236 233 240 235 237 243 248 247 242 233 227 211 216 211 224 232 235 219 196 196 191 197 206 208 206 203 202
296 286 278 274 269 269 249 248 255 262 271 267 263 257 251 234 233 229 238 239 236 235 243 244 249 237 234 226 224 222 218 230 246 211 190 216 202 202 199 193 195 196 203
303 297 291 283 276 276 250 245 241 246 257 261 263 258 260 256 240 235 236 236 242 245 236 236 244 248 244 230 220 226 227 228 239 216 195 223 206 207 202 201 191 198 205
302 295 290 284 276 279 266 259 248 240 247 250 252 254 256 254 253 246 245 245 245 244 232 229 235 241 244 238 224 225 225 232 237 225 198 215 207 205 205 190 200 206 209
304 298 294 288 280 279 261 256 243 244 247 249 247 250 247 244 250 237 236 244 259 266 256 236 225 229 239 244 235 227 222 217 237 237 215 201 208 204 211 220 211 210 207
301 298 298 295 289 282 264 248 237 251 255 257 256 248 246 248 230 216 223 241 254 265 272 276 256 236 234 242 232 217 221 219 226 236 228 193 194 193 235 222 199 202 209